Hourly Data Report for May 25, 2012

All times are specified in Local Standard Time (LST). Add 1 hour to adjust for Daylight Saving Time where and when it is observed.

SAULT STE MARIE A
ONTARIO

46°29'06.000" N
84°30'35.000" W
192.00 m
6057591
71260
YAM

Related Data

No related data is available for this station

Download Data

Hourly Data (May 2012)
Hourly Data Report for May 25, 2012
Temp Definition
°C
Dew Point Temp Definition
°C
Rel Hum Definition
%
Wind Dir Definition
10's deg

Wind Spd Definition
km/h
Visibility Definition
km
Stn Press Definition
kPa
Hmdx Definition


Wind Chill Definition


Weather Definition


TIME
00:00 Legend Double Dagger 20.9 15.7 72 11 18 10.0 98.00 25   LegendNANA
01:00 Legend Double Dagger 21.3 15.9 71 13 14 10.0 97.93 26   Mostly Cloudy
02:00 Legend Double Dagger 21.1 15.5 70 14 12 10.0 97.92 25   LegendNANA
03:00 Legend Double Dagger 20.7 14.9 69 20 10 10.0 98.03 25   LegendNANA
04:00 Legend Double Dagger 20.0 12.6 62 18 10 10.0 97.94     Mostly Cloudy
05:00 Legend Double Dagger 19.0 12.8 67 22 16 10.0 97.99     Rain Showers
06:00 Legend Double Dagger 17.7 14.8 83 24 21 10.0 98.14     LegendNANA
07:00 Legend Double Dagger 14.9 11.3 79 31 31 10.0 98.35     Cloudy
08:00 Legend Double Dagger 15.3 10.7 74 29 18 6.4 98.43     Smoke
09:00 Legend Double Dagger 17.8 11.0 64 28 15 10.0 98.59     LegendNANA
10:00 Legend Double Dagger 19.3 10.2 55 30 19 10.0 98.65     Mainly Clear
11:00 Legend Double Dagger 20.4 9.5 49 30 22 10.0 98.73     LegendNANA
12:00 Legend Double Dagger 21.1 9.8 48 33 33 4.8 98.82     Smoke
13:00 Legend Double Dagger 21.6 9.3 45 34 30 10.0 98.85     Mostly Cloudy
14:00 Legend Double Dagger 18.3 8.9 54 33 28 10.0 99.00     LegendNANA
15:00 Legend Double Dagger 17.2 8.4 56 31 30 10.0 99.10     LegendNANA
16:00 Legend Double Dagger 16.5 7.8 56 33 31 10.0 99.22     Mostly Cloudy
17:00 Legend Double Dagger 15.8 7.6 58 31 26 10.0 99.27     LegendNANA
18:00 Legend Double Dagger 13.2 6.8 65 32 21 10.0 99.43     LegendNANA
19:00 Legend Double Dagger 12.6 6.2 65 31 22 10.0 99.44     Mostly Cloudy
20:00 Legend Double Dagger 10.9 6.1 72 31 12 10.0 99.50     LegendNANA
21:00 Legend Double Dagger 10.5 6.1 74 33 13 10.0 99.60     LegendNANA
22:00 Legend Double Dagger 8.7 5.5 80 29 4 10.0 99.67     Mainly Clear
23:00 Legend Double Dagger 5.1 4.5 96   0 10.0 99.73     LegendNANA

Notes on Data Quality.

Legend

  • E = Estimated
  • M = Missing
  • NA = Not Available
  • ‡ = Partner data that is not subject to review by the National Climate Archives
Date modified: